Location: Fernhill
(41.0167°S, 175.6333°E)
Time: 02:29:53
(UTC+00:00)

Cosmos 1655 Rocket - Pass Details

Date: 08 November 2025
Orbit: 969 x 1006 km, 82.9° (Epoch: 13 December)

Event Time Altitude Azimuth Distance (km) Brightness Sun altitude
Exits shadow 10:34:49 47° 105° (ESE) 1,271 4.4 -28.9°
Drops below altitude 10° 10:40:17 10° 162° (SSE) 2,745 6.9 -29.3°
Sets 10:42:53 0° 167° (SSE) 3,700 7.8 -29.5°
